Year,Month,Day,Hour,Minute,Value (Times are PST for temperature in C)
2009,06,27,07,07,9.10
2009,06,27,07,08,9.10
2009,06,27,07,09,9.10
2009,06,27,07,10,9.20
2009,06,27,07,11,9.20
2009,06,27,07,12,9.30
2009,06,27,07,13,9.30
2009,06,27,07,14,9.40
2009,06,27,07,15,9.40
2009,06,27,07,16,9.50
2009,06,27,07,17,9.60
2009,06,27,07,18,9.60
2009,06,27,07,19,9.70
2009,06,27,07,20,9.80
2009,06,27,07,21,9.90
2009,06,27,07,22,10.10
2009,06,27,07,23,10.20
2009,06,27,07,24,10.40
2009,06,27,07,25,10.50
2009,06,27,07,26,10.70
2009,06,27,07,27,10.80
2009,06,27,07,28,10.90
2009,06,27,07,29,11.00
2009,06,27,07,30,11.00
2009,06,27,07,31,11.10
2009,06,27,07,32,11.10
2009,06,27,07,33,11.20
2009,06,27,07,34,11.20
2009,06,27,07,35,11.30
2009,06,27,07,36,11.30
2009,06,27,07,37,11.40
2009,06,27,07,38,11.50
2009,06,27,07,39,11.50
2009,06,27,07,40,11.60
2009,06,27,07,41,11.60
2009,06,27,07,42,11.60
2009,06,27,07,43,11.70
2009,06,27,07,44,11.70
2009,06,27,07,45,11.80
2009,06,27,07,46,11.90
2009,06,27,07,47,12.00
2009,06,27,07,48,12.10
2009,06,27,07,49,12.10
2009,06,27,07,50,12.20
2009,06,27,07,51,12.20
2009,06,27,07,52,12.30
2009,06,27,07,53,12.30
2009,06,27,07,54,12.30
2009,06,27,07,55,12.30
2009,06,27,07,56,12.30
2009,06,27,07,57,12.40
2009,06,27,07,58,12.40
2009,06,27,07,59,12.40
2009,06,27,08,00,12.40
2009,06,27,08,01,12.50
2009,06,27,08,02,12.50
2009,06,27,08,03,12.60
2009,06,27,08,04,12.60
2009,06,27,08,05,12.60
2009,06,27,08,06,12.70
2009,06,27,08,07,12.80
2009,06,27,08,08,12.90
2009,06,27,08,09,12.90
2009,06,27,08,10,13.00
2009,06,27,08,11,13.10
2009,06,27,08,12,13.20
2009,06,27,08,13,13.30
2009,06,27,08,14,13.30
2009,06,27,08,15,13.40
2009,06,27,08,16,13.50
2009,06,27,08,17,13.50
2009,06,27,08,18,13.60
2009,06,27,08,19,13.70
2009,06,27,08,20,13.70
2009,06,27,08,21,13.80
2009,06,27,08,22,13.80
2009,06,27,08,23,13.90
2009,06,27,08,24,13.90
2009,06,27,08,25,13.90
2009,06,27,08,26,13.80
2009,06,27,08,27,13.80
2009,06,27,08,28,13.80
2009,06,27,08,29,13.80
2009,06,27,08,30,13.80
2009,06,27,08,31,13.80
2009,06,27,08,32,13.80
2009,06,27,08,33,13.80
2009,06,27,08,34,13.80
2009,06,27,08,35,13.90
2009,06,27,08,36,14.00
2009,06,27,08,37,14.10
2009,06,27,08,38,14.20
2009,06,27,08,39,14.30
2009,06,27,08,40,14.30
2009,06,27,08,41,14.30
2009,06,27,08,42,14.30
2009,06,27,08,43,14.30
2009,06,27,08,44,14.40
2009,06,27,08,45,14.50
2009,06,27,08,46,14.60
2009,06,27,08,47,14.70
2009,06,27,08,48,14.80
2009,06,27,08,49,14.80
2009,06,27,08,50,14.90
2009,06,27,08,51,15.00
2009,06,27,08,52,15.00
2009,06,27,08,53,15.00
2009,06,27,08,54,15.00
2009,06,27,08,55,15.00
2009,06,27,08,56,15.00
2009,06,27,08,57,15.00
2009,06,27,08,58,15.00
2009,06,27,08,59,15.10
2009,06,27,09,00,15.00
2009,06,27,09,01,15.10
2009,06,27,09,02,15.20
2009,06,27,09,03,15.30
2009,06,27,09,04,15.30
2009,06,27,09,05,15.30
2009,06,27,09,06,15.30
2009,06,27,09,07,15.40
2009,06,27,09,08,15.50
2009,06,27,09,09,15.50
2009,06,27,09,10,15.60
2009,06,27,09,11,15.60
2009,06,27,09,12,15.60
2009,06,27,09,13,15.50
2009,06,27,09,14,15.40
2009,06,27,09,15,15.40
2009,06,27,09,16,15.40
2009,06,27,09,17,15.40
2009,06,27,09,18,15.50
2009,06,27,09,19,15.50
2009,06,27,09,20,15.50
2009,06,27,09,21,15.60
2009,06,27,09,22,15.70
2009,06,27,09,23,15.70
2009,06,27,09,24,15.70
2009,06,27,09,25,15.70
2009,06,27,09,26,15.70
2009,06,27,09,27,15.70
2009,06,27,09,28,15.70
2009,06,27,09,29,15.70
2009,06,27,09,30,15.70
2009,06,27,09,31,15.80
2009,06,27,09,32,15.90
2009,06,27,09,33,16.00
2009,06,27,09,34,16.00
2009,06,27,09,35,16.00
2009,06,27,09,36,16.10
2009,06,27,09,37,16.20
2009,06,27,09,38,16.20
2009,06,27,09,39,16.30
2009,06,27,09,40,16.30
2009,06,27,09,41,16.40
2009,06,27,09,42,16.40
2009,06,27,09,43,16.40
2009,06,27,09,44,16.40
2009,06,27,09,45,16.40
2009,06,27,09,46,16.40
2009,06,27,09,47,16.40
2009,06,27,09,48,16.30
2009,06,27,09,49,16.20
2009,06,27,09,50,16.20
2009,06,27,09,51,16.30
2009,06,27,09,52,16.40
2009,06,27,09,53,16.40
2009,06,27,09,54,16.40
2009,06,27,09,55,16.40
2009,06,27,09,56,16.40
2009,06,27,09,57,16.50
2009,06,27,09,58,16.60
2009,06,27,09,59,16.70
2009,06,27,10,00,16.70
2009,06,27,10,01,16.80
2009,06,27,10,02,16.80
2009,06,27,10,03,16.80
2009,06,27,10,04,16.80
2009,06,27,10,05,16.90
2009,06,27,10,06,16.90
2009,06,27,10,07,16.80
2009,06,27,10,08,16.80
2009,06,27,10,09,16.80
2009,06,27,10,10,16.80
2009,06,27,10,11,16.80
2009,06,27,10,12,16.90
2009,06,27,10,13,16.90
2009,06,27,10,14,16.90
2009,06,27,10,15,16.90
2009,06,27,10,16,16.80
2009,06,27,10,17,16.70
2009,06,27,10,18,16.60
2009,06,27,10,19,16.60
2009,06,27,10,20,16.60
2009,06,27,10,21,16.70
2009,06,27,10,22,16.70
2009,06,27,10,23,16.70
2009,06,27,10,24,16.80
2009,06,27,10,25,16.90
2009,06,27,10,26,17.00
2009,06,27,10,27,17.00
2009,06,27,10,28,16.90
2009,06,27,10,29,16.90
2009,06,27,10,30,17.00
2009,06,27,10,31,17.00
2009,06,27,10,32,17.00
2009,06,27,10,33,17.00
2009,06,27,10,34,17.10
2009,06,27,10,35,17.10
2009,06,27,10,36,17.10
2009,06,27,10,37,17.10
2009,06,27,10,38,17.20
2009,06,27,10,39,17.20
2009,06,27,10,40,17.20
2009,06,27,10,41,17.20
2009,06,27,10,42,17.20
2009,06,27,10,43,17.20
2009,06,27,10,44,17.20
2009,06,27,10,45,17.20
2009,06,27,10,46,17.30
2009,06,27,10,47,17.30
2009,06,27,10,48,17.40
2009,06,27,10,49,17.40
2009,06,27,10,50,17.40
2009,06,27,10,51,17.40
2009,06,27,10,52,17.40
2009,06,27,10,53,17.50
2009,06,27,10,54,17.50
2009,06,27,10,55,17.40
2009,06,27,10,56,17.30
2009,06,27,10,57,17.30
2009,06,27,10,58,17.20
2009,06,27,10,59,17.10
2009,06,27,11,00,17.20
2009,06,27,11,01,17.20
2009,06,27,11,02,17.20
2009,06,27,11,03,17.10
2009,06,27,11,04,17.10
2009,06,27,11,05,17.20
2009,06,27,11,06,17.30
2009,06,27,11,07,17.40
2009,06,27,11,08,17.40
2009,06,27,11,09,17.40
2009,06,27,11,10,17.40
2009,06,27,11,11,17.30
2009,06,27,11,12,17.40
2009,06,27,11,13,17.30
2009,06,27,11,14,17.30
2009,06,27,11,15,17.40
2009,06,27,11,16,17.40
2009,06,27,11,17,17.40
2009,06,27,11,18,17.40
2009,06,27,11,19,17.50
2009,06,27,11,20,17.40
2009,06,27,11,21,17.40
2009,06,27,11,22,17.40
2009,06,27,11,23,17.40
2009,06,27,11,24,17.40
2009,06,27,11,25,17.30
2009,06,27,11,26,17.40
2009,06,27,11,27,17.50
2009,06,27,11,28,17.60
2009,06,27,11,29,17.70
2009,06,27,11,30,17.70
2009,06,27,11,31,17.70
2009,06,27,11,32,17.80
2009,06,27,11,33,17.90
2009,06,27,11,34,17.90
2009,06,27,11,35,17.80
2009,06,27,11,36,17.70
2009,06,27,11,37,17.70
2009,06,27,11,38,17.70
2009,06,27,11,39,17.60
2009,06,27,11,40,17.60
2009,06,27,11,41,17.60
2009,06,27,11,42,17.60
2009,06,27,11,43,17.50
2009,06,27,11,44,17.50
2009,06,27,11,45,17.40
2009,06,27,11,46,17.30
2009,06,27,11,47,17.20
2009,06,27,11,48,17.10
2009,06,27,11,49,17.20
2009,06,27,11,50,17.30
2009,06,27,11,51,17.30
2009,06,27,11,52,17.40
2009,06,27,11,53,17.50
2009,06,27,11,54,17.60
2009,06,27,11,55,17.70
2009,06,27,11,56,17.70
2009,06,27,11,57,17.80
2009,06,27,11,58,17.80
2009,06,27,11,59,17.80
2009,06,27,12,00,17.80
2009,06,27,12,01,17.80
2009,06,27,12,02,17.90
2009,06,27,12,03,18.00
2009,06,27,12,04,18.10
2009,06,27,12,05,18.10
2009,06,27,12,06,18.10
2009,06,27,12,07,18.10
2009,06,27,12,08,18.20
2009,06,27,12,09,18.20
2009,06,27,12,10,18.40
2009,06,27,12,11,18.40
2009,06,27,12,12,18.30
2009,06,27,12,13,18.30
2009,06,27,12,14,18.30
2009,06,27,12,15,18.20
2009,06,27,12,16,18.20
2009,06,27,12,17,18.30
2009,06,27,12,18,18.30
2009,06,27,12,19,18.60
2009,06,27,12,20,18.80
2009,06,27,12,21,19.10
2009,06,27,12,22,19.40
2009,06,27,12,23,19.50
2009,06,27,12,24,19.60
2009,06,27,12,25,19.70
2009,06,27,12,26,19.80
2009,06,27,12,27,19.90
2009,06,27,12,28,19.90
2009,06,27,12,29,19.90
2009,06,27,12,30,20.00
2009,06,27,12,31,20.00
2009,06,27,12,32,20.10
2009,06,27,12,33,20.10
2009,06,27,12,34,20.10
2009,06,27,12,35,20.00
2009,06,27,12,36,20.00
2009,06,27,12,37,20.00
2009,06,27,12,38,20.00
2009,06,27,12,39,20.00
2009,06,27,12,40,20.10
2009,06,27,12,41,20.10
2009,06,27,12,42,20.10
2009,06,27,12,43,20.00
2009,06,27,12,44,20.00
2009,06,27,12,45,20.00
2009,06,27,12,46,19.90
2009,06,27,12,47,19.70
2009,06,27,12,48,19.70
2009,06,27,12,49,19.70
2009,06,27,12,50,19.80
2009,06,27,12,51,19.80
2009,06,27,12,52,19.80
2009,06,27,12,53,19.80
2009,06,27,12,54,19.90
2009,06,27,12,55,19.80
2009,06,27,12,56,19.80
2009,06,27,12,57,19.70
2009,06,27,12,58,19.70
2009,06,27,12,59,19.80
2009,06,27,13,00,19.90
2009,06,27,13,01,19.90
2009,06,27,13,02,19.80
2009,06,27,13,03,19.70
2009,06,27,13,04,19.60
2009,06,27,13,05,19.50
2009,06,27,13,06,19.40
2009,06,27,13,07,19.30
2009,06,27,13,08,19.20
2009,06,27,13,09,19.20
2009,06,27,13,10,19.30
2009,06,27,13,11,19.30
2009,06,27,13,12,19.30
2009,06,27,13,13,19.30
2009,06,27,13,14,19.30
2009,06,27,13,15,19.50
2009,06,27,13,16,19.50
2009,06,27,13,17,19.40
2009,06,27,13,18,19.30
2009,06,27,13,19,19.20
2009,06,27,13,20,19.20
2009,06,27,13,21,19.20
2009,06,27,13,22,19.20
2009,06,27,13,23,19.30
2009,06,27,13,24,19.30
2009,06,27,13,25,19.30
2009,06,27,13,26,19.30
2009,06,27,13,27,19.40
2009,06,27,13,28,19.40
2009,06,27,13,29,19.50
2009,06,27,13,30,19.60
2009,06,27,13,31,19.70
2009,06,27,13,32,19.80
2009,06,27,13,33,20.00
2009,06,27,13,34,20.10
2009,06,27,13,35,20.10
2009,06,27,13,36,20.10
2009,06,27,13,37,19.90
2009,06,27,13,38,19.90
2009,06,27,13,39,20.00
2009,06,27,13,40,20.10
2009,06,27,13,41,20.00
2009,06,27,13,42,20.00
2009,06,27,13,43,19.90
2009,06,27,13,44,19.90
2009,06,27,13,45,19.80
2009,06,27,13,46,19.90
2009,06,27,13,47,20.00
2009,06,27,13,48,19.90
2009,06,27,13,49,19.80
2009,06,27,13,50,19.90
2009,06,27,13,51,20.10
2009,06,27,13,52,20.20
2009,06,27,13,53,20.30
2009,06,27,13,54,20.50
2009,06,27,13,55,20.40
2009,06,27,13,56,20.30
2009,06,27,13,57,20.30
2009,06,27,13,58,20.30
2009,06,27,13,59,20.40
2009,06,27,14,00,20.50
2009,06,27,14,01,20.50
2009,06,27,14,02,20.50
2009,06,27,14,03,20.50
2009,06,27,14,04,20.30
2009,06,27,14,05,20.20
2009,06,27,14,06,20.20
2009,06,27,14,07,20.10
2009,06,27,14,08,20.10
2009,06,27,14,09,20.20
2009,06,27,14,10,20.30
2009,06,27,14,11,20.40
2009,06,27,14,12,20.40
2009,06,27,14,13,20.30
2009,06,27,14,14,20.40
2009,06,27,14,15,20.40
2009,06,27,14,16,20.40
2009,06,27,14,17,20.40
2009,06,27,14,18,20.40
2009,06,27,14,19,20.40
2009,06,27,14,20,20.30
2009,06,27,14,21,20.40
2009,06,27,14,22,20.50
2009,06,27,14,23,20.70
2009,06,27,14,24,20.90
2009,06,27,14,25,21.10
2009,06,27,14,26,21.20
2009,06,27,14,27,21.30
2009,06,27,14,28,21.40
2009,06,27,14,29,21.40
2009,06,27,14,30,21.40
2009,06,27,14,31,21.60
2009,06,27,14,32,21.60
2009,06,27,14,33,21.70
2009,06,27,14,34,21.70
2009,06,27,14,35,21.80
2009,06,27,14,36,21.80
2009,06,27,14,37,21.90
2009,06,27,14,38,21.90
2009,06,27,14,39,21.80
2009,06,27,14,40,21.70
2009,06,27,14,41,21.70
2009,06,27,14,42,21.60
2009,06,27,14,43,21.50
2009,06,27,14,44,21.60
2009,06,27,14,45,21.70
2009,06,27,14,46,21.80
2009,06,27,14,47,21.70
2009,06,27,14,48,21.50
2009,06,27,14,49,21.40
2009,06,27,14,50,21.40
2009,06,27,14,51,21.40
2009,06,27,14,52,21.50
2009,06,27,14,53,21.50
2009,06,27,14,54,21.40
2009,06,27,14,55,21.40
2009,06,27,14,56,21.40
2009,06,27,14,57,21.50
2009,06,27,14,58,21.40
2009,06,27,14,59,21.50
2009,06,27,15,00,21.40
2009,06,27,15,01,21.40
2009,06,27,15,02,21.20
2009,06,27,15,03,21.00
2009,06,27,15,04,20.90
2009,06,27,15,05,20.80
2009,06,27,15,06,20.70
2009,06,27,15,07,20.70
2009,06,27,15,08,20.50
2009,06,27,15,09,20.40
2009,06,27,15,10,20.30
2009,06,27,15,11,20.50
2009,06,27,15,12,20.60
2009,06,27,15,13,20.60
2009,06,27,15,14,20.70
2009,06,27,15,15,20.70
2009,06,27,15,16,20.70
2009,06,27,15,17,20.80
2009,06,27,15,18,20.80
2009,06,27,15,19,20.90
2009,06,27,15,20,20.90
2009,06,27,15,21,20.90
2009,06,27,15,22,20.90
2009,06,27,15,23,20.70
2009,06,27,15,24,20.50
2009,06,27,15,25,20.30
2009,06,27,15,26,20.30
2009,06,27,15,27,20.20
2009,06,27,15,28,20.10
2009,06,27,15,29,20.10
2009,06,27,15,30,20.10
2009,06,27,15,31,20.20
2009,06,27,15,32,20.30
2009,06,27,15,33,20.30
2009,06,27,15,34,20.30
2009,06,27,15,35,20.20
2009,06,27,15,36,20.20
2009,06,27,15,37,20.10
2009,06,27,15,38,20.00
2009,06,27,15,39,19.90
2009,06,27,15,40,19.80
2009,06,27,15,41,19.70
2009,06,27,15,42,19.70
2009,06,27,15,43,19.70
2009,06,27,15,44,19.70
2009,06,27,15,45,19.70
2009,06,27,15,46,19.80
2009,06,27,15,47,19.80
2009,06,27,15,48,19.80
2009,06,27,15,49,19.80
2009,06,27,15,50,19.90
2009,06,27,15,51,20.00
2009,06,27,15,52,20.00
2009,06,27,15,53,20.10
2009,06,27,15,54,20.20
2009,06,27,15,55,20.20
2009,06,27,15,56,20.10
2009,06,27,15,57,20.00
2009,06,27,15,58,19.80
2009,06,27,15,59,19.70
2009,06,27,16,00,19.60
2009,06,27,16,01,19.60
2009,06,27,16,02,19.50
2009,06,27,16,03,19.60
2009,06,27,16,04,19.60
2009,06,27,16,05,19.60
2009,06,27,16,06,19.60
2009,06,27,16,07,19.60
2009,06,27,16,08,19.70
2009,06,27,16,09,19.70
2009,06,27,16,10,19.80
2009,06,27,16,11,19.90
2009,06,27,16,12,19.90
2009,06,27,16,13,19.80
2009,06,27,16,14,19.70
2009,06,27,16,15,19.70
2009,06,27,16,16,19.60
2009,06,27,16,17,19.50
2009,06,27,16,18,19.40
2009,06,27,16,19,19.50
2009,06,27,16,20,19.50
2009,06,27,16,21,19.40
2009,06,27,16,22,19.40
2009,06,27,16,23,19.50
2009,06,27,16,24,19.50
2009,06,27,16,25,19.60
2009,06,27,16,26,19.60
2009,06,27,16,27,19.50
2009,06,27,16,28,19.40
2009,06,27,16,29,19.40
2009,06,27,16,30,19.40
2009,06,27,16,31,19.30
2009,06,27,16,32,19.30
2009,06,27,16,33,19.30
2009,06,27,16,34,19.30
2009,06,27,16,35,19.30
2009,06,27,16,36,19.30
2009,06,27,16,37,19.30
2009,06,27,16,38,19.30
2009,06,27,16,39,19.30
2009,06,27,16,40,19.30
2009,06,27,16,41,19.30
2009,06,27,16,42,19.30
2009,06,27,16,43,19.40
2009,06,27,16,44,19.40
2009,06,27,16,45,19.40
2009,06,27,16,46,19.40
2009,06,27,16,47,19.50
2009,06,27,16,48,19.60
2009,06,27,16,49,19.70
2009,06,27,16,50,19.70
2009,06,27,16,51,19.70
2009,06,27,16,52,19.80
2009,06,27,16,53,19.80
2009,06,27,16,54,19.80
2009,06,27,16,55,19.80
2009,06,27,16,56,19.80
2009,06,27,16,57,19.70
2009,06,27,16,58,19.60
2009,06,27,16,59,19.60
2009,06,27,17,00,19.60
2009,06,27,17,01,19.60
2009,06,27,17,02,19.60
2009,06,27,17,03,19.60
2009,06,27,17,04,19.70
2009,06,27,17,05,19.60
2009,06,27,17,06,19.60
2009,06,27,17,07,19.50
2009,06,27,17,08,19.50
2009,06,27,17,09,19.40
2009,06,27,17,10,19.30
2009,06,27,17,11,19.30
2009,06,27,17,12,19.20
2009,06,27,17,13,19.20
2009,06,27,17,14,19.10
2009,06,27,17,15,19.10
2009,06,27,17,16,19.00
2009,06,27,17,17,19.10
2009,06,27,17,18,19.10
2009,06,27,17,19,19.20
2009,06,27,17,20,19.20
2009,06,27,17,21,19.20
2009,06,27,17,22,19.30
2009,06,27,17,23,19.30
2009,06,27,17,24,19.20
2009,06,27,17,25,19.20
2009,06,27,17,26,19.30
2009,06,27,17,27,19.30
2009,06,27,17,28,19.30
2009,06,27,17,29,19.30
2009,06,27,17,30,19.30
2009,06,27,17,31,19.30
2009,06,27,17,32,19.30
2009,06,27,17,33,19.30
2009,06,27,17,34,19.40
2009,06,27,17,35,19.40
2009,06,27,17,36,19.40
2009,06,27,17,37,19.50
2009,06,27,17,38,19.60
2009,06,27,17,39,19.60
2009,06,27,17,40,19.60
2009,06,27,17,41,19.60
2009,06,27,17,42,19.50
2009,06,27,17,43,19.50
2009,06,27,17,44,19.50
2009,06,27,17,45,19.50
2009,06,27,17,46,19.40
2009,06,27,17,47,19.30
2009,06,27,17,48,19.30
2009,06,27,17,49,19.20
2009,06,27,17,50,19.20
2009,06,27,17,51,19.20
2009,06,27,17,52,19.20
2009,06,27,17,53,19.20
2009,06,27,17,54,19.10
2009,06,27,17,55,19.10
2009,06,27,17,56,19.20
2009,06,27,17,57,19.20
2009,06,27,17,58,19.10
2009,06,27,17,59,19.10
2009,06,27,18,00,19.10
2009,06,27,18,01,19.10
2009,06,27,18,02,19.10
2009,06,27,18,03,19.00
2009,06,27,18,04,19.00
2009,06,27,18,05,18.90
2009,06,27,18,06,18.90
2009,06,27,18,07,18.90
2009,06,27,18,08,18.80
2009,06,27,18,09,18.80
2009,06,27,18,10,18.80
2009,06,27,18,11,18.80
2009,06,27,18,12,18.80
2009,06,27,18,13,18.80
2009,06,27,18,14,18.70
2009,06,27,18,15,18.70
2009,06,27,18,16,18.80
2009,06,27,18,17,18.80
2009,06,27,18,18,18.80
2009,06,27,18,19,18.80
2009,06,27,18,20,18.80
2009,06,27,18,21,18.80
2009,06,27,18,22,18.90
2009,06,27,18,23,18.90
2009,06,27,18,24,18.90
2009,06,27,18,25,18.80
2009,06,27,18,26,18.80
2009,06,27,18,27,18.80
2009,06,27,18,28,18.80
2009,06,27,18,29,18.80
2009,06,27,18,30,18.80
2009,06,27,18,31,18.80
2009,06,27,18,32,18.80
2009,06,27,18,33,18.80
2009,06,27,18,34,18.80
2009,06,27,18,35,18.80
2009,06,27,18,36,18.80
2009,06,27,18,37,18.80
2009,06,27,18,38,18.80
2009,06,27,18,39,18.80
2009,06,27,18,40,18.80
2009,06,27,18,41,18.80
